Date String (YYYY-MM-DD hh:mm:ss) UTC,Instrument flags,absolute air pressure of the measurement (hPa),sample flow rate (lpm),inlet stack bypass flow (lpm),air temperature of the measurement (°C),ambient temperature measured by the external sensor (°C),aerosol sample conditioner tube jacket temperature (°C),OPC LED temperature (°C),internal box temperature (°C),relative humidity of the measurement (%),span deviation,mass concentration of particles derived from Lorenz-Mie calculation of OPC scattering (μg/m³),mass concentration of particles derived from Lorenz-Mie calculation of OPC scattering (μg/m³),mass concentration of particles derived from Lorenz-Mie calculation of OPC scattering (μg/m³)
DateTimeUTC,F1_M11,P_M11,Q1_M11,Q2_M11,T1_M11,T2_M11,T3_M11,T4_M11,T5_M11,U1_M11,ZSPAN_M11,X0_M11,X2_M11,X1_M11
2023-08-29 14:00:00,SystemResetWarning,0839.5,5.00,000.00,028.5,025.3,000.0,037.2,029.8,30.2,0000.0,0004.64,0003.21,0002.82
2023-08-29 14:01:00,SystemResetWarning,0839.5,5.00,000.00,028.5,025.7,000.0,037.2,029.9,30.3,0000.0,0004.65,0003.22,0002.84
2023-08-29 14:02:00,SystemResetWarning,0839.5,5.00,000.00,028.5,026.1,000.0,037.2,030.0,30.7,0000.0,0004.56,0003.21,0002.83
2023-08-29 14:03:00,SystemResetWarning,0839.5,5.00,000.00,028.5,026.3,000.0,037.2,030.0,30.6,0000.0,0004.44,0003.21,0002.83
2023-08-29 14:04:00,SystemResetWarning,0839.5,5.00,000.00,028.5,026.6,000.0,037.2,030.1,29.3,0000.0,0004.37,0003.19,0002.84
2023-08-29 14:05:00,SystemResetWarning,0839.6,4.99,000.00,028.5,026.8,000.0,037.2,030.1,30.0,0000.0,0004.45,0003.21,0002.85
2023-08-29 14:06:00,SystemResetWarning,0839.6,4.99,000.00,028.6,027.0,000.0,037.2,030.1,31.6,0000.0,0004.41,0003.21,0002.87
2023-08-29 14:07:00,SystemResetWarning,0839.5,5.00,000.00,028.6,027.1,000.0,037.2,030.2,31.8,0000.0,0004.54,0003.23,0002.89
2023-08-29 14:08:00,SystemResetWarning,0839.5,5.00,000.00,028.6,027.2,000.0,037.2,030.2,31.4,0000.0,0004.76,0003.26,0002.89
2023-08-29 14:09:00,SystemResetWarning,0839.6,5.00,000.00,028.6,027.3,000.0,037.2,030.3,31.1,0000.0,0004.67,0003.24,0002.89
2023-08-29 14:10:00,SystemResetWarning,0839.6,5.00,000.00,028.7,027.4,000.0,037.2,030.3,31.0,0000.0,0004.66,0003.24,0002.91
2023-08-29 14:11:00,SystemResetWarning,0839.6,5.00,000.00,028.7,027.5,000.0,037.2,030.3,30.9,0000.0,0004.65,0003.24,0002.91
2023-08-29 14:12:00,SystemResetWarning,0839.6,5.00,000.00,028.7,027.6,000.0,037.2,030.4,30.5,0000.0,0004.56,0003.25,0002.91
2023-08-29 14:13:00,SystemResetWarning,0839.6,5.01,000.00,028.7,027.6,000.0,037.3,030.4,30.2,0000.0,0004.67,0003.27,0002.93
2023-08-29 14:14:00,SystemResetWarning,0839.6,5.01,000.00,028.8,027.7,000.0,037.3,030.4,30.6,0000.0,0004.70,0003.27,0002.92
2023-08-29 14:15:00,SystemResetWarning,0839.6,4.99,000.00,028.8,027.3,000.0,037.2,030.4,30.7,0000.0,0004.62,0003.26,0002.92
2023-08-29 14:16:00,SystemResetWarning,0839.5,4.99,000.00,028.8,025.6,000.0,037.1,030.1,28.7,0000.0,0004.58,0003.26,0002.92
2023-08-29 14:17:00,SystemResetWarning,0839.5,5.00,000.00,028.7,024.6,000.0,037.0,029.9,28.8,0000.0,0004.58,0003.27,0002.93
2023-08-29 14:18:00,SystemResetWarning,0839.6,5.01,000.00,028.6,024.6,000.0,036.9,029.8,28.8,0000.0,0004.50,0003.25,0002.93
2023-08-29 14:19:00,SystemResetWarning,0839.6,5.00,000.00,028.5,024.9,000.0,037.0,029.7,30.1,0000.0,0004.26,0003.22,0002.94
2023-08-29 14:20:00,SystemResetWarning,0839.6,5.00,000.00,028.4,025.3,000.0,037.0,029.8,32.2,0000.0,0004.23,0003.22,0002.94
2023-08-29 14:21:00,SystemResetWarning,0839.6,5.00,000.00,028.4,025.7,000.0,037.0,029.8,32.4,0000.0,0004.22,0003.22,0002.95
2023-08-29 14:22:00,SystemResetWarning,0839.7,5.00,000.00,028.4,026.0,000.0,037.0,029.9,32.4,0000.0,0004.14,0003.21,0002.96
2023-08-29 14:23:00,SystemResetWarning,0839.7,4.99,000.00,028.4,026.3,000.0,037.0,030.0,32.0,0000.0,0004.04,0003.20,0002.97
2023-08-29 14:24:00,SystemResetWarning,0839.7,5.00,000.00,028.4,026.6,000.0,037.0,030.0,31.7,0000.0,0004.01,0003.20,0002.97
2023-08-29 14:25:00,SystemResetWarning,0839.7,5.00,000.00,028.5,026.8,000.0,037.0,030.1,31.9,0000.0,0004.14,0003.21,0002.97
2023-08-29 14:26:00,SystemResetWarning,0839.7,5.00,000.00,028.5,027.0,000.0,037.1,030.1,31.9,0000.0,0004.25,0003.22,0002.99
2023-08-29 14:27:00,SystemResetWarning,0839.7,5.00,000.00,028.5,027.1,000.0,037.1,030.1,32.1,0000.0,0004.27,0003.22,0003.01
2023-08-29 14:28:00,SystemResetWarning,0839.7,5.00,000.00,028.5,027.2,000.0,037.1,030.2,31.8,0000.0,0004.24,0003.21,0003.00
2023-08-29 14:29:00,SystemResetWarning,0839.7,5.00,000.00,028.6,027.3,000.0,037.1,030.2,31.7,0000.0,0004.20,0003.20,0003.00
2023-08-29 14:30:00,SystemResetWarning,0839.7,5.00,000.00,028.6,027.4,000.0,037.1,030.3,32.2,0000.0,0004.17,0003.19,0003.00
2023-08-29 14:31:00,SystemResetWarning,0839.7,5.00,000.00,028.6,027.5,000.0,037.1,030.3,32.2,0000.0,0004.20,0003.20,0003.02
2023-08-29 14:32:00,SystemResetWarning,0839.7,5.00,000.00,028.7,027.6,000.0,037.1,030.3,32.9,0000.0,0004.21,0003.21,0003.02
2023-08-29 14:33:00,SystemResetWarning,0839.6,4.99,000.00,028.7,027.3,000.0,037.1,030.3,33.3,0000.0,0004.33,0003.24,0003.04
2023-08-29 14:34:00,SystemResetWarning,0839.7,5.00,000.00,028.7,025.8,000.0,037.0,030.1,32.6,0000.0,0004.44,0003.25,0003.05
2023-08-29 14:35:00,SystemResetWarning,0839.7,5.01,000.00,028.6,024.6,000.0,036.9,029.9,32.8,0000.0,0004.44,0003.25,0003.06
2023-08-29 14:36:00,SystemResetWarning,0839.7,5.01,000.00,028.5,024.5,000.0,036.8,029.6,33.1,0000.0,0004.31,0003.26,0003.09
2023-08-29 14:37:00,SystemResetWarning,0839.7,4.99,000.00,028.4,024.8,000.0,036.9,029.5,32.8,0000.0,0005.55,0003.27,0003.10
2023-08-29 14:38:00,SystemResetWarning,0839.7,5.00,000.00,028.3,025.2,000.0,036.9,029.6,33.0,0000.0,0006.00,0003.30,0003.11
2023-08-29 14:39:00,SystemResetWarning,0839.7,5.00,000.00,028.3,025.6,000.0,036.9,029.7,32.3,0000.0,0006.08,0003.31,0003.13
2023-08-29 14:40:00,SystemResetWarning,0839.7,4.99,000.00,028.3,025.9,000.0,036.9,029.8,31.6,0000.0,0006.08,0003.32,0003.13
2023-08-29 14:41:00,SystemResetWarning,0839.7,4.99,000.00,028.3,026.2,000.0,036.9,029.9,32.1,0000.0,0006.12,0003.33,0003.13
2023-08-29 14:42:00,SystemResetWarning,0839.7,5.00,000.00,028.4,026.5,000.0,036.9,029.9,31.5,0000.0,0006.43,0003.33,0003.13
2023-08-29 14:43:00,SystemResetWarning,0839.7,5.00,000.00,028.4,026.7,000.0,036.9,030.0,30.7,0000.0,0006.56,0003.33,0003.13
2023-08-29 14:44:00,SystemResetWarning,0839.7,5.00,000.00,028.4,026.9,000.0,036.9,030.0,30.3,0000.0,0006.51,0003.30,0003.12
2023-08-29 14:45:00,SystemResetWarning,0839.7,5.01,000.00,028.4,027.0,000.0,037.0,030.1,30.3,0000.0,0006.54,0003.31,0003.11
2023-08-29 14:46:00,SystemResetWarning,0839.7,4.99,000.00,028.5,027.2,000.0,037.0,030.1,30.3,0000.0,0006.51,0003.30,0003.10
2023-08-29 14:49:00,SystemResetWarning,0839.7,5.01,000.00,028.6,027.4,000.0,037.0,030.3,30.9,0000.0,0004.77,0003.30,0003.10
2023-08-29 14:50:00,SystemResetWarning,0839.7,4.99,000.00,028.6,026.6,000.0,036.9,030.1,30.8,0000.0,0004.74,0003.30,0003.10
2023-08-29 14:51:00,SystemResetWarning,0839.7,5.00,000.00,028.5,025.0,000.0,036.8,029.8,30.3,0000.0,0004.79,0003.32,0003.12
2023-08-29 14:52:00,SystemResetWarning,0839.7,5.01,000.00,028.4,024.4,000.0,036.7,029.6,30.3,0000.0,0004.83,0003.35,0003.14
2023-08-29 14:53:00,SystemResetWarning,0839.6,5.01,000.00,028.3,024.6,000.0,036.8,029.5,30.6,0000.0,0004.66,0003.36,0003.16
2023-08-29 14:54:00,SystemResetWarning,0839.7,5.01,000.00,028.2,024.9,000.0,036.8,029.5,30.7,0000.0,0004.65,0003.37,0003.18
2023-08-29 14:55:00,SystemResetWarning,0839.6,5.00,000.00,028.2,025.3,000.0,036.8,029.6,30.8,0000.0,0004.89,0003.42,0003.19
2023-08-29 14:56:00,SystemResetWarning,0839.7,5.00,000.00,028.2,025.7,000.0,036.8,029.7,31.2,0000.0,0004.82,0003.41,0003.20
2023-08-29 14:57:00,SystemResetWarning,0839.7,5.00,000.00,028.3,026.1,000.0,036.8,029.8,31.7,0000.0,0004.86,0003.43,0003.20
2023-08-29 14:58:00,SystemResetWarning,0839.7,5.00,000.00,028.3,026.3,000.0,036.8,029.9,31.1,0000.0,0004.76,0003.41,0003.19
2023-08-29 14:59:00,SystemResetWarning,0839.7,5.00,000.00,028.3,026.6,000.0,036.8,030.0,31.1,0000.0,0004.79,0003.42,0003.19
